Weather in Morsha

Russia / Samara Oblast     52°24′12″N   50°45′10″E
temp.,
°C
wind,
m/s
gust,
m/s
humid.,
%
clouds,
%
prec.,
mm/h
press.,
hPa
HPBL,
m
28 october, thu
thu2801:00+3sw816532 0.0 1021457
04:00+2sw816540 0.0 1019424
07:00+1sw7155540 0.0 1018394
10:00+3sw71253100 0.0 1019411
13:00+5sw6105499 0.0 1019456
16:00+7sw5957100 0.0 1018609
19:00+5sw51162100 0.0 1018392
22:00+5sw51061100 0.0 1017343
29 october, fri
fri2901:00+3sw4866100 0.0 1017195
04:00+3sw3670100 0.0 1018134
07:00+3wsw2479100 0.1 1019132
10:00+4wsw1188100 0.6 102173
13:00+5n2389100 0.1 1024248
16:00+5nne3587100 0.1 1026359
19:00+5n3491100 0.0 1028230
22:00+4n2286100 0.0 102981
30 october, sat
sat3001:00+5w1176100 0.0 103021
04:00+3wsw3484100 0.0 103057
07:00+3sw498770 0.0 1030220
10:00+5sw6117850 0.0 1030437
13:00+9wsw8115827 0.0 1028773
16:00+10wsw71162100 0.0 1027656
19:00+8wsw61374100 0.0 1028356
22:00+7wsw5128648 0.0 1028255
31 october, sun
sun3101:00+6w49945 0.0 1028182
04:00+5w37950 0.0 1028123
07:00+5w35965 0.0 102984
10:00+8wnw368619 0.0 1030217
13:00+13w46685 0.0 1029533
16:00+13w46655 0.0 1029255
19:00+9w48755 0.0 1029112
22:00+7w467413 0.0 102997
1 november, mon
mon101:00+6w36767 0.0 102985
04:00+6w47835 0.0 1029107
07:00+5wsw47875 0.0 1029104
10:00+8w49695 0.0 1029255
13:00+13w57505 0.0 1028529
16:00+12wsw47535 0.0 1027242
19:00+8wsw47705 0.0 1027105
22:00+7wsw37765 0.0 1027106